Date String (YYYY-MM-DD hh:mm:ss) UTC,Instrument flags,absolute air pressure of the measurement (hPa),sample flow rate (lpm),inlet stack bypass flow (lpm),air temperature of the measurement (°C),ambient temperature measured by the external sensor (°C),aerosol sample conditioner tube jacket temperature (°C),OPC LED temperature (°C),internal box temperature (°C),relative humidity of the measurement (%),span deviation,mass concentration of particles derived from Lorenz-Mie calculation of OPC scattering (μg/m³),mass concentration of particles derived from Lorenz-Mie calculation of OPC scattering (μg/m³),mass concentration of particles derived from Lorenz-Mie calculation of OPC scattering (μg/m³)
DateTimeUTC,F1_M11,P_M11,Q1_M11,Q2_M11,T1_M11,T2_M11,T3_M11,T4_M11,T5_M11,U1_M11,ZSPAN_M11,X2_M11,X0_M11,X1_M11
2023-10-13 13:00:00,SystemResetWarning,0831.1,4.99,000.00,023.0,021.5,000.0,031.6,024.5,17.4,0000.0,0002.55,0005.73,0002.03
2023-10-13 13:01:00,SystemResetWarning,0831.0,5.00,000.00,023.0,021.5,000.0,031.5,024.5,17.4,0000.0,0002.56,0005.00,0002.02
2023-10-13 13:02:00,SystemResetWarning,0831.1,5.00,000.00,023.0,021.5,000.0,031.5,024.5,17.4,0000.0,0002.54,0004.90,0002.00
2023-10-13 13:03:00,SystemResetWarning,0831.1,5.00,000.00,023.0,021.5,000.0,031.5,024.5,17.4,0000.0,0002.54,0004.68,0001.99
2023-10-13 13:04:00,SystemResetWarning,0831.1,5.00,000.00,023.0,021.5,000.0,031.5,024.6,17.4,0000.0,0002.48,0004.46,0001.98
2023-10-13 13:05:00,SystemResetWarning,0831.2,5.01,000.00,023.0,021.5,000.0,031.5,024.6,17.4,0000.0,0002.40,0004.24,0001.96
2023-10-13 13:06:00,SystemResetWarning,0831.1,5.01,000.00,023.0,021.6,000.0,031.5,024.6,17.5,0000.0,0002.34,0004.09,0001.95
2023-10-13 13:07:00,SystemResetWarning,0831.1,5.00,000.00,023.0,021.6,000.0,031.5,024.6,17.5,0000.0,0002.30,0003.91,0001.95
2023-10-13 13:08:00,SystemResetWarning,0831.1,5.00,000.00,023.0,021.6,000.0,031.5,024.7,17.5,0000.0,0002.26,0003.79,0001.94
2023-10-13 13:09:00,SystemResetWarning,0831.1,5.01,000.00,023.0,021.6,000.0,031.5,024.7,17.5,0000.0,0002.20,0003.57,0001.93
2023-10-13 13:10:00,SystemResetWarning,0831.1,5.00,000.00,023.0,021.7,000.0,031.5,024.7,17.5,0000.0,0002.20,0003.58,0001.92
2023-10-13 13:11:00,SystemResetWarning,0831.2,4.99,000.00,023.0,021.7,000.0,031.5,024.7,17.5,0000.0,0002.19,0003.13,0001.91
2023-10-13 13:12:00,SystemResetWarning,0831.3,4.99,000.00,023.0,021.7,000.0,031.5,024.8,17.5,0000.0,0002.14,0002.86,0001.89
2023-10-13 13:13:00,SystemResetWarning,0831.3,5.00,000.00,023.1,021.8,000.0,031.5,024.8,17.5,0000.0,0002.14,0002.83,0001.87
2023-10-13 13:14:00,SystemResetWarning,0831.3,5.01,000.00,023.1,021.8,000.0,031.5,024.7,17.5,0000.0,0002.13,0002.82,0001.86
2023-10-13 13:15:00,SystemResetWarning,0831.2,5.01,000.00,023.1,021.8,000.0,031.5,024.7,17.4,0000.0,0002.11,0002.77,0001.84
2023-10-13 13:16:00,SystemResetWarning,0831.3,5.00,000.00,023.1,021.8,000.0,031.5,024.7,17.3,0000.0,0002.11,0002.76,0001.83
2023-10-13 13:17:00,SystemResetWarning,0831.3,5.00,000.00,023.1,021.7,000.0,031.5,024.7,17.3,0000.0,0002.10,0002.76,0001.82
2023-10-13 13:18:00,SystemResetWarning,0831.3,5.00,000.00,023.1,021.7,000.0,031.5,024.8,17.2,0000.0,0002.09,0002.77,0001.80
2023-10-13 13:19:00,SystemResetWarning,0831.3,5.00,000.00,023.1,021.7,000.0,031.5,024.8,17.2,0000.0,0002.10,0002.88,0001.81
2023-10-13 13:20:00,SystemResetWarning,0831.3,5.00,000.00,023.1,021.7,000.0,031.5,024.8,17.1,0000.0,0002.10,0003.01,0001.80
2023-10-13 13:21:00,SystemResetWarning,0831.3,5.00,000.00,023.1,021.8,000.0,031.5,024.8,17.0,0000.0,0002.08,0003.01,0001.79
2023-10-13 13:22:00,SystemResetWarning,0831.3,5.00,000.00,023.1,021.8,000.0,031.5,024.8,17.0,0000.0,0002.06,0002.99,0001.78
2023-10-13 13:23:00,SystemResetWarning,0831.3,4.99,000.00,023.1,021.8,000.0,031.5,024.8,17.0,0000.0,0002.08,0003.03,0001.79
2023-10-13 13:24:00,SystemResetWarning,0831.3,5.01,000.00,023.1,021.8,000.0,031.5,024.8,16.9,0000.0,0002.09,0002.99,0001.82
2023-10-13 13:25:00,SystemResetWarning,0831.4,5.00,000.00,023.1,021.8,000.0,031.5,024.9,16.9,0000.0,0002.08,0002.97,0001.80
2023-10-13 13:26:00,SystemResetWarning,0831.4,5.00,000.00,023.1,021.8,000.0,031.5,024.9,16.8,0000.0,0002.06,0003.00,0001.78
2023-10-13 13:27:00,SystemResetWarning,0831.3,5.00,000.00,023.1,021.7,000.0,031.5,024.8,16.8,0000.0,0002.07,0003.08,0001.76
2023-10-13 13:28:00,SystemResetWarning,0831.3,5.00,000.00,023.1,021.7,000.0,031.5,024.8,16.7,0000.0,0002.07,0003.11,0001.73
2023-10-13 13:29:00,SystemResetWarning,0831.3,5.00,000.00,023.1,021.7,000.0,031.5,024.8,16.7,0000.0,0002.03,0003.14,0001.69
2023-10-13 13:30:00,SystemResetWarning,0831.3,5.00,000.00,023.1,021.7,000.0,031.5,024.7,16.7,0000.0,0001.98,0003.00,0001.65
2023-10-13 13:31:00,SystemResetWarning,0831.3,5.00,000.00,023.1,021.7,000.0,031.5,024.8,16.8,0000.0,0001.93,0002.82,0001.62
2023-10-13 13:32:00,SystemResetWarning,0831.3,5.00,000.00,023.1,021.7,000.0,031.5,024.8,16.8,0000.0,0001.88,0002.70,0001.59
2023-10-13 13:33:00,SystemResetWarning,0831.3,5.00,000.00,023.1,021.7,000.0,031.5,024.8,17.0,0000.0,0001.87,0002.72,0001.56
2023-10-13 13:34:00,SystemResetWarning,0831.3,5.00,000.00,023.1,021.7,000.0,031.6,024.8,17.0,0000.0,0001.86,0002.74,0001.54
2023-10-13 13:35:00,SystemResetWarning,0831.3,4.99,000.00,023.1,021.7,000.0,031.6,024.8,17.0,0000.0,0001.81,0002.65,0001.50
2023-10-13 13:36:00,SystemResetWarning,0831.4,5.00,000.00,023.1,021.7,000.0,031.6,024.8,16.9,0000.0,0001.76,0002.57,0001.47
2023-10-13 13:37:00,SystemResetWarning,0831.4,5.00,000.00,023.1,021.8,000.0,031.6,024.9,16.9,0000.0,0001.72,0002.49,0001.45
2023-10-13 13:38:00,SystemResetWarning,0831.4,5.01,000.00,023.2,021.8,000.0,031.6,024.9,16.9,0000.0,0001.67,0002.39,0001.43
2023-10-13 13:39:00,SystemResetWarning,0831.5,5.00,000.00,023.2,021.8,000.0,031.5,024.9,16.8,0000.0,0001.61,0002.30,0001.41
2023-10-13 13:40:00,SystemResetWarning,0831.5,5.00,000.00,023.2,021.8,000.0,031.6,024.9,16.8,0000.0,0001.57,0002.20,0001.38
2023-10-13 13:41:00,SystemResetWarning,0831.5,5.00,000.00,023.2,021.8,000.0,031.6,024.9,16.8,0000.0,0001.53,0002.10,0001.35
2023-10-13 13:42:00,SystemResetWarning,0831.5,5.00,000.00,023.2,021.9,000.0,031.6,024.9,16.8,0000.0,0001.47,0002.01,0001.31
2023-10-13 13:43:00,SystemResetWarning,0831.5,4.99,000.00,023.2,021.9,000.0,031.6,024.9,16.8,0000.0,0001.44,0002.00,0001.27
2023-10-13 13:44:00,SystemResetWarning,0831.5,4.99,000.00,023.2,021.8,000.0,031.6,024.9,16.8,0000.0,0001.40,0001.95,0001.23
2023-10-13 13:45:00,SystemResetWarning,0831.6,5.00,000.00,023.2,021.8,000.0,031.6,024.9,16.8,0000.0,0001.34,0001.84,0001.18
2023-10-13 13:46:00,SystemResetWarning,0831.5,5.00,000.00,023.2,021.8,000.0,031.6,024.8,16.8,0000.0,0001.28,0001.78,0001.13
2023-10-13 13:47:00,SystemResetWarning,0831.6,5.00,000.00,023.1,021.8,000.0,031.6,024.8,16.8,0000.0,0001.28,0001.79,0001.11
2023-10-13 13:48:00,SystemResetWarning,0831.6,5.00,000.00,023.1,021.7,000.0,031.6,024.8,16.7,0000.0,0001.27,0001.82,0001.08
2023-10-13 13:49:00,SystemResetWarning,0831.6,5.01,000.00,023.1,021.7,000.0,031.6,024.7,16.7,0000.0,0001.24,0001.79,0001.05
2023-10-13 13:50:00,SystemResetWarning,0831.5,5.01,000.00,023.1,021.7,000.0,031.6,024.7,16.8,0000.0,0001.21,0001.72,0001.02
2023-10-13 13:51:00,SystemResetWarning,0831.6,5.00,000.00,023.1,021.6,000.0,031.6,024.7,16.9,0000.0,0001.19,0001.69,0000.99
2023-10-13 13:52:00,SystemResetWarning,0831.6,5.00,000.00,023.1,021.6,000.0,031.6,024.7,17.1,0000.0,0001.18,0001.66,0000.98
2023-10-13 13:53:00,SystemResetWarning,0831.6,5.00,000.00,023.1,021.6,000.0,031.6,024.8,17.1,0000.0,0001.20,0001.76,0001.00
2023-10-13 13:54:00,SystemResetWarning,0831.7,5.00,000.00,023.1,021.7,000.0,031.5,024.8,17.2,0000.0,0001.23,0001.85,0001.01
2023-10-13 13:55:00,SystemResetWarning,0831.7,4.99,000.00,023.1,021.7,000.0,031.5,024.8,17.5,0000.0,0001.25,0001.86,0001.04
2023-10-13 13:56:00,SystemResetWarning,0831.6,4.99,000.00,023.1,021.7,000.0,031.6,024.8,17.4,0000.0,0001.30,0001.93,0001.08
2023-10-13 13:57:00,SystemResetWarning,0831.7,4.99,000.00,023.1,021.7,000.0,031.6,024.8,17.2,0000.0,0001.38,0002.35,0001.13
2023-10-13 13:58:00,SystemResetWarning,0831.7,5.00,000.00,023.1,021.8,000.0,031.6,024.9,17.3,0000.0,0001.45,0002.54,0001.20
2023-10-13 13:59:00,SystemResetWarning,0831.7,5.00,000.00,023.1,021.8,000.0,031.6,024.9,17.2,0000.0,0001.48,0002.52,0001.25
